Location: Bli��� Lhota
(48.7570°N, 14.0120°E)
Time: 23:20:52
(UTC+00:00)

SL-14 R/B - Pass Details

Date: 18 September 2020
Orbit: 519 x 553 km, 82.4° (Epoch: 31 October)

Event Time Altitude Azimuth Distance (km) Brightness Sun altitude
Rises 19:10:53 0° 357° (N) 2,674 7.2 -20.0°
Reaches altitude 10° 19:13:10 10° 6° (N) 1,784 6.2 -20.4°
Enters shadow 19:15:55 32° 44° (NE) 941 4.3 -20.8°
